Location: Głuchołazy
(50.3169°N, 17.3829°E)
Time: 00:15:47
(UTC+02:00)

ISS - Visible Passes

Search period start: 21 September 2018 00:00
Search period end: 01 October 2018 00:00
Orbit: 403 x 408 km, 51.6° (Epoch: 20 September)

Date Brightness Start Highest point End Pass type
(mag) Time Alt. Az. Time Alt. Az. Time Alt. Az.
22 Sep -1.9 20:27:27 10° SSW 20:28:50 18° S 20:28:50 18° S visible
23 Sep -1.9 19:36:33 10° S 19:38:27 15° SE 19:39:35 13° ESE visible
23 Sep -1.6 21:11:11 10° WSW 21:12:18 19° SW 21:12:18 19° SW visible
24 Sep -3.3 20:19:31 10° SW 20:22:38 40° SSE 20:22:51 39° SE visible
25 Sep -2.6 19:28:02 10° SSW 19:30:52 27° SE 19:33:16 13° E visible
25 Sep -2.5 21:03:49 10° WSW 21:05:57 37° WSW 21:05:57 37° WSW visible
26 Sep -3.9 20:11:56 10° WSW 20:15:13 68° SSE 20:16:13 40° E visible
26 Sep -0.6 21:48:30 10° W 21:48:54 13° W 21:48:54 13° W visible
27 Sep -3.4 19:20:10 10° SW 19:23:21 47° SSE 19:26:24 11° E visible
27 Sep -2.9 20:56:31 10° W 20:59:04 49° WNW 20:59:04 49° WNW visible
28 Sep -3.8 20:04:33 10° WSW 20:07:51 83° NNW 20:09:10 34° ENE visible
28 Sep -0.7 21:41:12 10° WNW 21:41:51 15° WNW 21:41:51 15° WNW visible
29 Sep -3.8 19:12:36 10° WSW 19:15:54 77° SSE 19:19:12 10° ENE visible
29 Sep -3.0 20:49:12 10° W 20:51:53 52° NW 20:51:53 52° NW visible
30 Sep -3.7 19:57:11 10° W 20:00:29 69° N 20:01:53 31° ENE visible
30 Sep -0.8 21:33:47 10° WNW 21:34:33 16° WNW 21:34:33 16° WNW visible
